This demonstration page uses our WeatherBlox Daily Observations layout. Learn more.

Left ArrowRight Arrow

31.31129, -92.44514

Hourly Observations for December 9, 2019

Temp ( °F °C ) Dew Point ( °F °C ) Humidity (%) Winds ( mph kmh ) Pressure ( in mb ) Visibility ( mi km ) Precip ( " mm )
12:53 am 00:53 Cloudy 61 16.1 59 15 93 93 S 8 13 29.92 1013 7 11 0.00 0.00
1:53 am 01:53 Cloudy 61 16.1 59 15 93 93 SSE 9 15 29.91 1013 7 11 0.00 0.00
2:53 am 02:53 Cloudy with Mist and Fog 61 16.1 59 15 93 93 SSE 6 9 29.89 1012 6 10 0.00 0.00
3:53 am 03:53 Cloudy with Mist and Fog 62 16.7 60 15.6 93 93 SSE 8 13 29.87 1012 6 10 0.00 0.00
4:53 am 04:53 Cloudy 63 17.2 61 16.1 93 93 SSE 6 9 29.87 1012 7 11 0.00 0.00
5:53 am 05:53 Cloudy 65 18.3 62 16.7 90 90 S 9 15 29.87 1011 8 13 0.00 0.00
6:53 am 06:53 Cloudy 65 18.3 63 17.2 93 93 S 9 15 29.88 1012 8 13 0.00 0.00
7:44 am 07:44 Cloudy with Mist and Fog 66 18.9 64 17.8 93 93 S 7 11 29.88 1012 6 10 0.00 0.00
7:53 am 07:53 Cloudy with Mist and Fog 66 18.9 64 17.8 93 93 S 8 13 29.89 1012 6 10 0.00 0.00
8:02 am 08:02 Cloudy with Mist and Fog 66 18.9 64 17.8 93 93 S 8 13 29.88 1012 6 10 0.00 0.00
8:53 am 08:53 Cloudy 69 20.6 65 18.3 87 87 S 9 15 29.90 1013 7 11 0.00 0.00
9:00 am 09:00 Cloudy 69 20.6 65 18.3 87 87 S 10 17 29.89 1012 7 11 0.00 0.00
9:53 am 09:53 Cloudy 71 21.7 66 18.9 84 84 SSW 10 17 29.90 1013 8 13 0.00 0.00
10:09 am 10:09 Cloudy 72 22.2 66 18.9 82 82 SSW 12 19 29.89 1012 8 13 0.00 0.00
10:53 am 10:53 Mostly Cloudy 73 22.8 66 18.9 79 79 SSW 12 19 29.88 1012 9 14 0.00 0.00
11:53 am 11:53 Cloudy 74 23.3 66 18.9 76 76 SW 12 19 29.86 1011 10 16 0.00 0.00
12:00 pm 12:00 Cloudy 75 23.9 66 18.9 74 74 SSW 10 17 29.84 1010 10 16 0.00 0.00
12:13 pm 12:13 Cloudy 75 23.9 66 18.9 74 74 SW 9 15 29.84 1010 10 16 0.00 0.00
12:53 pm 12:53 Cloudy 76 24.4 66 18.9 72 72 SW 13 20 29.83 1010 10 16 0.00 0.00
1:43 pm 13:43 Mostly Cloudy 78 25.6 66 18.9 67 67 SW 12 19 29.81 1009 10 16 0.00 0.00
1:53 pm 13:53 Mostly Cloudy 78 25.6 66 18.9 67 67 SW 9 15 29.81 1010 7 11 0.00 0.00
2:53 pm 14:53 Mostly Cloudy 78 25.6 66 18.9 67 67 WSW 10 17 29.81 1010 10 16 0.00 0.00
3:53 pm 15:53 Cloudy 77 25 66 18.9 69 69 SW 7 11 29.82 1010 9 14 0.00 0.00
4:53 pm 16:53 Cloudy 75 23.9 66 18.9 74 74 SSW 7 11 29.83 1010 10 16 0.00 0.00
5:53 pm 17:53 Cloudy 74 23.3 67 19.4 79 79 S 8 13 29.85 1011 9 14 0.00 0.00
6:53 pm 18:53 Mostly Clear 72 22.2 67 19.4 84 84 S 9 15 29.86 1011 9 14 0.00 0.00
7:53 pm 19:53 Clear 72 22.2 67 19.4 84 84 SSW 9 15 29.87 1012 9 14 0.00 0.00
8:53 pm 20:53 Partly Cloudy 72 22.2 68 20 87 87 SSW 8 13 29.89 1012 9 14 0.00 0.00
9:08 pm 21:08 Mostly Cloudy 71 21.7 68 20 90 90 SSW 7 11 29.88 1012 10 16 0.00 0.00
9:49 pm 21:49 Partly Cloudy 72 22 68 20 88 88 SW 7 11 29.88 1012 8 13 0.00 0.00
9:53 pm 21:53 Mostly Clear 70 21.1 68 20 93 93 SSW 6 9 29.89 1012 8 13 0.00 0.00
10:09 pm 22:09 Mostly Cloudy 71 21.7 68 20 90 90 SSW 6 9 29.88 1012 7 11 0.00 0.00
10:45 pm 22:45 Cloudy with Mist and Fog 71 21.7 68 20 90 90 SSW 7 11 29.89 1012 6 10 0.00 0.00
10:53 pm 22:53 Cloudy with Mist and Fog 71 21.7 68 20 90 90 SSW 6 9 29.90 1012 6 10 0.00 0.00
11:51 pm 23:51 Cloudy 72 22 68 20 88 88 SSW 7 11 29.90 1012 7 11 0.00 0.00
11:53 pm 23:53 Cloudy 71 21.7 68 20 90 90 SSW 7 11 29.91 1013 7 11 0.00 0.00

Powered by AerisWeather